[[{"header":{"parameterUnit":"m.s-1","parameterCategory":1,"la1":30.2991,"la2":30.254,"lo1":-89.0895,"lo2":-89.0444,"dy":0.0017,"dx":0.0017,"nx":28,"ny":28,"refTime":"2025-06-02T09:00:00:Z","depth":0,"parameterNumber":2,"parameterNumberName":"U-component_of_WINDS"},"data":[0,0,0,0,0,0,0,0,0,0,0,0,0,0,0,0,0,0,0,0,0,0,0,0,0,0,0,0,0,0,0,0,0,0,0,0,0,0,0,0,0,0,0,0,0,0,0,0,0,0,0,0,0,0,0,0,0,0,-1.2943,-1.2942,0,-1.291,-1.2909,-1.2909,-1.2849,-1.2848,-1.2846,-1.2845,-1.2813,-1.2814,-1.2814,0,0,0,0,0,0,0,0,0,0,0,0,0,-1.2956,-1.2956,-1.2943,-1.2942,-1.2942,-1.291,-1.2909,-1.2909,-1.2849,-1.2847,-1.2846,-1.2845,-1.2813,-1.2814,-1.2814,0,0,0,0,0,0,0,0,0,0,0,0,0,-1.2939,-1.2956,-1.2943,-1.2908,-1.2904,-1.291,-1.2909,-1.2909,-1.2849,-1.2847,-1.2846,-1.2844,-1.2813,-1.2814,-1.2814,-1.2851,0,0,-1.2815,-1.2815,0,0,0,0,0,0,0,0,-1.294,-1.2939,-1.2913,-1.291,-1.2906,-1.2881,-1.2902,-1.289,-1.285,-1.287,-1.2845,-1.2843,-1.2838,-1.2836,-1.2834,-1.285,-1.2848,-1.2815,-1.2815,-1.2815,-1.2816,0,0,0,0,0,0,0,-1.2941,-1.294,-1.293,-1.2913,-1.2909,-1.2895,-1.2891,-1.29,-1.2864,-1.2868,-1.2864,-1.2861,-1.2835,-1.2833,-1.2832,-1.2848,-1.2815,-1.2815,-1.2816,-1.2816,-1.2894,-1.2896,0,0,0,0,0,0,-1.2947,-1.2941,-1.2931,-1.2929,-1.2919,-1.2896,-1.2891,-1.2891,-1.2864,-1.2858,-1.2862,-1.2858,-1.2834,-1.2832,-1.2831,-1.2873,-1.2815,-1.2816,-1.2816,-1.2892,-1.2895,-1.2897,0,0,0,0,0,0,-1.2948,-1.2947,-1.2932,-1.2934,-1.2931,-1.2898,-1.2898,-1.2892,-1.2889,-1.2859,-1.2853,-1.2867,-1.2832,-1.2831,-1.2847,-1.2872,-1.2816,-1.2816,-1.289,-1.2893,-1.2896,-1.2958,0,0,0,0,0,0,-1.2948,-1.2948,-1.2961,-1.2934,-1.2931,-1.2948,-1.29,-1.2892,-1.289,-1.2884,-1.2862,-1.2856,-1.2831,-1.2847,-1.2847,-1.2871,-1.2817,-1.2888,-1.2891,-1.2895,-1.2954,-1.2963,-1.2971,0,0,0,0,0,-1.2949,-1.298,-1.2962,-1.2961,-1.2946,-1.2949,-1.2947,-1.2917,-1.2892,-1.2906,-1.2887,-1.2857,-1.2869,-1.2849,-1.2849,-1.2873,-1.2886,-1.289,-1.2894,-1.295,-1.2961,-1.2971,0,0,0,0,0,0,-1.301,-1.2976,-1.2955,-1.2978,-1.2967,-1.2939,-1.2955,-1.2929,-1.2925,-1.292,-1.2883,-1.2878,-1.29,-1.2888,-1.2866,-1.2909,-1.2873,-1.2877,-1.2915,-1.2925,-1.2934,-1.2936,-1.2817,0,0,0,0,0,-1.3026,-1.303,-1.3,-1.3024,-1.3019,-1.2988,-1.2988,-1.2966,-1.2953,-1.2948,-1.293,-1.292,-1.2921,-1.2922,-1.2922,-1.2952,-1.2947,-1.2969,-1.2978,-1.2985,-1.2989,-1.3005,-1.3015,-1.291,-1.291,-1.291,0,0,-1.3059,-1.3041,-1.3046,-1.3035,-1.3024,-1.303,-1.2985,-1.2993,-1.2997,-1.295,-1.2964,-1.295,-1.2936,-1.296,-1.2969,-1.2951,-1.3017,-1.299,-1.2996,-1.2996,-1.3011,-1.3021,-1.3029,-1.2913,-1.2913,-1.2912,0,0,-1.3123,-1.3109,-1.3127,-1.3117,-1.3101,-1.308,-1.3085,-1.3061,-1.305,-1.3064,-1.3029,-1.3034,-1.3037,-1.3028,-1.3025,-1.3087,-1.306,-1.3088,-1.3132,-1.3148,-1.3156,-1.3164,-1.3187,-1.3195,-1.3092,-1.3093,-1.3093,0,-1.3166,-1.3173,-1.314,-1.3151,-1.3148,-1.3105,-1.3123,-1.3115,-1.31,-1.3099,-1.3079,-1.3082,-1.307,-1.3091,-1.3107,-1.3105,-1.311,-1.309,-1.3158,-1.3165,-1.3171,-1.3192,-1.3201,-1.3096,-1.3096,-1.3095,-1.3095,0,-1.3228,-1.3234,-1.3251,-1.3237,-1.3235,-1.325,-1.322,-1.3223,-1.3201,-1.3184,-1.3199,-1.3182,-1.3178,-1.3182,-1.3161,-1.3201,-1.319,-1.3164,-1.3128,-1.3185,-1.3205,-1.3213,-1.3101,-1.31,-1.3099,-1.3098,0,0,-1.3328,-1.3296,-1.3303,-1.3297,-1.3276,-1.3281,-1.3294,-1.329,-1.3294,-1.3285,-1.3296,-1.33,-1.3277,-1.3272,-1.325,-1.3264,-1.3316,-1.3237,-1.3236,-1.3253,-1.3361,-1.3381,-1.3391,-1.3298,-1.33,-1.3301,-1.3362,0,-1.3387,-1.3408,-1.3379,-1.3406,-1.3412,-1.3372,-1.3384,-1.3374,-1.3358,-1.3361,-1.3343,-1.3347,-1.3315,-1.3312,-1.3325,-1.3307,-1.3337,-1.3302,-1.3309,-1.331,-1.3314,-1.3401,-1.3422,-1.3481,-1.337,-1.3371,-1.3372,0,-1.3459,-1.3454,-1.3482,-1.3461,-1.3462,-1.3473,-1.3468,-1.3471,-1.3459,-1.3446,-1.3443,-1.3416,-1.3429,-1.3394,-1.3412,-1.3389,-1.339,-1.3382,-1.3384,-1.3383,-1.3344,-1.3404,-1.3499,-1.3508,-1.3384,-1.3383,-1.3382,0,-1.353,-1.353,-1.3547,-1.3543,-1.3519,-1.3528,-1.3518,-1.3504,-1.3504,-1.35,-1.3499,-1.3497,-1.3495,-1.3495,-1.3469,-1.3445,-1.3491,-1.3453,-1.3481,-1.3482,-1.3493,-1.3492,-1.359,-1.3493,-1.3493,-1.3493,-1.3493,0,-1.3599,-1.3618,-1.3579,-1.3589,-1.361,-1.3577,-1.3599,-1.3585,-1.3573,-1.3581,-1.3547,-1.3555,-1.352,-1.3525,-1.3505,-1.3524,-1.3524,-1.3515,-1.3509,-1.3518,-1.3519,-1.3518,-1.3514,-1.3495,-1.3495,-1.3494,-1.3494,0,-1.3682,-1.3656,-1.3672,-1.3648,-1.3643,-1.3659,-1.3639,-1.3648,-1.363,-1.3641,-1.3642,-1.3614,-1.3619,-1.3593,-1.3592,-1.3579,-1.3608,-1.3595,-1.3612,-1.3608,-1.3639,-1.3636,-1.3739,-1.3751,-1.3647,-1.3648,-1.3649,0,-1.3728,-1.3742,-1.3719,-1.3722,-1.3714,-1.3719,-1.3719,-1.3688,-1.3689,-1.3677,-1.3688,-1.369,-1.3689,-1.3698,-1.3679,-1.3679,-1.3666,-1.3702,-1.3666,-1.3675,-1.3668,-1.3667,-1.3669,-1.371,-1.3711,-1.3712,-1.3713,0,-1.3813,-1.38,-1.38,-1.3797,-1.3798,-1.3794,-1.3787,-1.3792,-1.3758,-1.3762,-1.3766,-1.3766,-1.3766,-1.3768,-1.3764,-1.3755,-1.373,-1.3725,-1.3732,-1.3741,-1.375,-1.3746,-1.3633,-1.3723,-1.3722,-1.3721,-1.3721,-1.372,-1.3879,-1.389,-1.3876,-1.3878,-1.387,-1.3866,-1.3874,-1.3857,-1.386,-1.3857,-1.3839,-1.3847,-1.3835,-1.3828,-1.3822,-1.3828,-1.3811,-1.382,-1.3823,-1.3826,-1.3832,-1.3749,-1.3827,-1.3827,-1.3826,-1.3826,-1.3826,0,-1.3962,-1.3952,-1.3954,-1.3947,-1.3949,-1.3924,-1.3916,-1.392,-1.3927,-1.3919,-1.3919,-1.3925,-1.3927,-1.3908,-1.3909,-1.3918,-1.3906,-1.3919,-1.3918,-1.3917,-1.3846,-1.3841,-1.3928,-1.3928,-1.3928,-1.3928,-1.3928,-1.3928,-1.4006,-1.4023,-1.4009,-1.4023,-1.4012,-1.4019,-1.4017,-1.4013,-1.4006,-1.4014,-1.4015,-1.4003,-1.3991,-1.399,-1.3992,-1.3987,-1.3989,-1.4006,-1.3997,-1.3931,-1.3921,-1.3912,-1.3907,-1.4007,-1.4007,-1.4066,-1.4067,-1.4067]},{"header":{"parameterUnit":"m.s-1","parameterCategory":1,"la1":30.2991,"la2":30.254,"lo1":-89.0895,"lo2":-89.0444,"dy":0.0017,"dx":0.0017,"nx":28,"ny":28,"refTime":"2025-06-02T09:00:00:Z","depth":0,"parameterNumber":3,"parameterNumberName":"V-component_of_WINDS"},"data":[0,0,0,0,0,0,0,0,0,0,0,0,0,0,0,0,0,0,0,0,0,0,0,0,0,0,0,0,0,0,0,0,0,0,0,0,0,0,0,0,0,0,0,0,0,0,0,0,0,0,0,0,0,0,0,0,0,0,0.2462,0.2462,0,0.2476,0.2476,0.2476,0.2496,0.2496,0.2496,0.2497,0.251,0.2511,0.2511,0,0,0,0,0,0,0,0,0,0,0,0,0,0.2451,0.2451,0.2462,0.2462,0.2462,0.2476,0.2476,0.2476,0.2496,0.2496,0.2496,0.2497,0.251,0.251,0.2511,0,0,0,0,0,0,0,0,0,0,0,0,0,0.2459,0.2451,0.2462,0.2473,0.2475,0.2476,0.2476,0.2476,0.2495,0.2496,0.2496,0.2497,0.251,0.251,0.2511,0.2501,0,0,0.2511,0.2511,0,0,0,0,0,0,0,0,0.2459,0.246,0.2471,0.2473,0.2474,0.2484,0.2477,0.2484,0.2495,0.2487,0.2497,0.2497,0.2501,0.2502,0.2504,0.2502,0.2502,0.2511,0.2511,0.2511,0.2511,0,0,0,0,0,0,0,0.2458,0.2459,0.2467,0.2472,0.2473,0.2478,0.2479,0.2479,0.2491,0.2488,0.249,0.2491,0.2502,0.2504,0.2504,0.2503,0.2511,0.2511,0.2511,0.2511,0.2493,0.2493,0,0,0,0,0,0,0.2456,0.2459,0.2467,0.2468,0.2467,0.2477,0.2479,0.2481,0.2491,0.2494,0.2491,0.2492,0.2503,0.2504,0.2505,0.2494,0.2511,0.2511,0.2511,0.2494,0.2493,0.2492,0,0,0,0,0,0,0.2456,0.2456,0.2466,0.2463,0.2465,0.2477,0.2478,0.2481,0.2482,0.2493,0.2496,0.249,0.2504,0.2505,0.2502,0.2495,0.2511,0.2511,0.2494,0.2493,0.2493,0.2473,0,0,0,0,0,0,0.2455,0.2456,0.2453,0.2463,0.2465,0.2463,0.2478,0.248,0.2482,0.2484,0.2493,0.2495,0.2504,0.2502,0.2502,0.2495,0.2511,0.2495,0.2494,0.2493,0.2474,0.2471,0.2469,0,0,0,0,0,0.2455,0.2447,0.2453,0.2453,0.2461,0.2463,0.2464,0.2474,0.2482,0.2478,0.2485,0.2495,0.2496,0.2501,0.2502,0.2495,0.2495,0.2494,0.2493,0.2475,0.2472,0.2469,0,0,0,0,0,0,0.2435,0.2448,0.2455,0.245,0.2455,0.2466,0.2462,0.247,0.2473,0.2475,0.2488,0.249,0.2485,0.249,0.2496,0.2486,0.2497,0.2496,0.2483,0.248,0.2478,0.2476,0.2511,0,0,0,0,0,0.243,0.243,0.2442,0.2436,0.2439,0.245,0.2451,0.2458,0.2464,0.2466,0.2473,0.2478,0.248,0.248,0.2482,0.2475,0.2477,0.2471,0.2468,0.2466,0.2465,0.2461,0.2458,0.2489,0.2489,0.2489,0,0,0.242,0.2427,0.2426,0.2433,0.2437,0.2437,0.2451,0.2451,0.245,0.2466,0.2464,0.2469,0.2476,0.247,0.2468,0.2474,0.2457,0.2464,0.2463,0.2462,0.2459,0.2456,0.2454,0.2488,0.2488,0.2488,0,0,0.2401,0.2407,0.2403,0.2407,0.2414,0.2422,0.2421,0.243,0.2435,0.2432,0.2444,0.2444,0.2446,0.245,0.2452,0.2435,0.2444,0.2435,0.2422,0.2418,0.2416,0.2413,0.2407,0.2404,0.2434,0.2434,0.2434,0,0.2387,0.2388,0.2399,0.2398,0.24,0.2414,0.241,0.2414,0.2421,0.2422,0.2428,0.2431,0.2437,0.2432,0.2428,0.243,0.2428,0.2434,0.2415,0.2413,0.2411,0.2405,0.2403,0.2433,0.2433,0.2433,0.2433,0,0.237,0.237,0.2366,0.2373,0.2374,0.2371,0.2382,0.2383,0.239,0.2397,0.2395,0.2401,0.2405,0.2404,0.2412,0.2401,0.2404,0.2413,0.2424,0.2407,0.2401,0.2399,0.2431,0.2432,0.2432,0.2432,0,0,0.2339,0.2352,0.2351,0.2354,0.2363,0.2363,0.236,0.2364,0.2363,0.2368,0.2366,0.2367,0.2375,0.2378,0.2386,0.2382,0.2367,0.2391,0.2391,0.2386,0.2355,0.2349,0.2346,0.2373,0.2373,0.2373,0.2355,0,0.2322,0.2318,0.2329,0.2323,0.2322,0.2336,0.2334,0.2339,0.2345,0.2346,0.2353,0.2353,0.2364,0.2365,0.2363,0.237,0.2361,0.2371,0.2371,0.2371,0.2369,0.2343,0.2336,0.2319,0.2353,0.2352,0.2352,0,0.2301,0.2304,0.2298,0.2307,0.2307,0.2305,0.2309,0.231,0.2316,0.232,0.2323,0.2332,0.233,0.2341,0.2338,0.2345,0.2345,0.2349,0.2348,0.2348,0.236,0.2342,0.2314,0.2311,0.2349,0.2349,0.2349,0,0.2278,0.2281,0.2278,0.228,0.2291,0.2289,0.2293,0.23,0.2301,0.2304,0.2305,0.2308,0.231,0.2312,0.2321,0.2328,0.2317,0.2329,0.2321,0.232,0.2317,0.2317,0.2288,0.2318,0.2318,0.2318,0.2318,0,0.2257,0.2253,0.2268,0.2266,0.2261,0.2273,0.2268,0.2274,0.2279,0.2278,0.2291,0.2289,0.2302,0.2303,0.231,0.2306,0.2307,0.231,0.2312,0.2309,0.2309,0.2309,0.2311,0.2318,0.2318,0.2318,0.2318,0,0.2231,0.2241,0.2238,0.2248,0.2251,0.2247,0.2256,0.2254,0.2261,0.226,0.226,0.2271,0.2272,0.2282,0.2284,0.229,0.2283,0.2287,0.228,0.2282,0.2273,0.2273,0.2243,0.224,0.2272,0.2272,0.2271,0,0.2217,0.2214,0.2224,0.2224,0.2228,0.2228,0.2229,0.2241,0.2242,0.2248,0.2246,0.2248,0.225,0.225,0.2258,0.226,0.2265,0.2254,0.2265,0.2262,0.2264,0.2264,0.2263,0.2251,0.2251,0.2251,0.225,0,0.219,0.2195,0.2197,0.22,0.2202,0.2205,0.2209,0.2208,0.2221,0.2221,0.2222,0.2224,0.2227,0.2228,0.2232,0.2236,0.2245,0.2247,0.2245,0.2241,0.2238,0.2239,0.2274,0.2247,0.2248,0.2248,0.2248,0.2248,0.217,0.2167,0.2174,0.2175,0.2179,0.2183,0.2182,0.2188,0.219,0.2193,0.22,0.22,0.2205,0.2211,0.2214,0.2214,0.222,0.2217,0.2216,0.2216,0.2214,0.2238,0.2215,0.2215,0.2215,0.2215,0.2215,0,0.2144,0.2148,0.215,0.2155,0.2156,0.2164,0.2169,0.2169,0.2169,0.2174,0.2175,0.2176,0.2178,0.2186,0.2188,0.2186,0.219,0.2186,0.2186,0.2187,0.2209,0.221,0.2183,0.2183,0.2183,0.2183,0.2183,0.2183,0.213,0.2127,0.2132,0.2131,0.2136,0.2136,0.2138,0.2141,0.2145,0.2145,0.2146,0.2152,0.2158,0.2161,0.2162,0.2165,0.2165,0.2159,0.2163,0.2183,0.2186,0.2189,0.219,0.2159,0.2159,0.2141,0.2141,0.2141]}]]